Stündliche Wetter Otnurok

Heute, 10 April, Samstag

Zeit Temperatur Niederschläge Wind Luftdruck Luftfeuchtigkeit
00:00 +3°C° 0 mm 1 m/S 723 mmHg 96%
01:00 +3°C° 0 mm 1 m/S 723 mmHg 96%
02:00 +3°C° 0 mm 1 m/S 723 mmHg 96%
03:00 +3°C° 0 mm 1 m/S 724 mmHg 96%
04:00 +2°C° 0 mm 1 m/S 724 mmHg 97%
05:00 +3°C° 0 mm 1 m/S 724 mmHg 96%
06:00 +4°C° 0 mm 1 m/S 724 mmHg 95%
07:00 +5°C° 0 mm 1 m/S 725 mmHg 95%
08:00 +6°C° 0 mm 1 m/S 725 mmHg 92%
09:00 +7°C° 0 mm 1 m/S 725 mmHg 89%
10:00 +9°C° 0 mm 1 m/S 725 mmHg 86%
11:00 +10°C° 0 mm 1 m/S 725 mmHg 85%
12:00 +10°C° 0 mm 1 m/S 725 mmHg 83%
13:00 +10°C° 0 mm 2 m/S 726 mmHg 81%
14:00 +10°C° 0 mm 2 m/S 726 mmHg 84%
15:00 +10°C° 0 mm 2 m/S 726 mmHg 86%
16:00 +10°C° 0 mm 1 m/S 726 mmHg 88%
17:00 +8°C° 0 mm 1 m/S 727 mmHg 91%
18:00 +7°C° 0 mm 1 m/S 727 mmHg 95%
19:00 +5°C° 0 mm 1 m/S 727 mmHg 98%
20:00 +5°C° 0 mm 1 m/S 727 mmHg 98%
21:00 +4°C° 0 mm 1 m/S 727 mmHg 98%
22:00 +4°C° 0 mm 1 m/S 727 mmHg 98%
23:00 +4°C° 0 mm 1 m/S 727 mmHg 98%

Morgen, 11 April, Sonntag

Zeit Temperatur Niederschläge Wind Luftdruck Luftfeuchtigkeit
00:00 +4°C° 0 mm 1 m/S 727 mmHg 98%
01:00 +4°C° 0 mm 1 m/S 727 mmHg 98%
02:00 +3°C° 0 mm 1 m/S 727 mmHg 97%
03:00 +3°C° 0 mm 1 m/S 727 mmHg 97%
04:00 +2°C° 0 mm 1 m/S 728 mmHg 97%
05:00 +2°C° 0 mm 1 m/S 728 mmHg 93%
06:00 +3°C° 0 mm 1 m/S 728 mmHg 89%
07:00 +3°C° 0 mm 1 m/S 728 mmHg 84%
08:00 +5°C° 0 mm 1 m/S 728 mmHg 78%
09:00 +8°C° 0 mm 1 m/S 728 mmHg 72%
10:00 +9°C° 0 mm 2 m/S 727 mmHg 66%
11:00 +10°C° 0 mm 2 m/S 727 mmHg 64%
12:00 +12°C° 0 mm 2 m/S 727 mmHg 62%
13:00 +14°C° 0 mm 2 m/S 727 mmHg 60%
14:00 +14°C° 0 mm 2 m/S 727 mmHg 62%
15:00 +14°C° 0 mm 2 m/S 727 mmHg 63%
16:00 +14°C° 0 mm 2 m/S 727 mmHg 64%
17:00 +12°C° 0 mm 2 m/S 727 mmHg 73%
18:00 +10°C° 0 mm 1 m/S 727 mmHg 81%
19:00 +8°C° 0 mm 1 m/S 727 mmHg 89%
20:00 +7°C° 0 mm 1 m/S 727 mmHg 89%
21:00 +7°C° 0 mm 1 m/S 727 mmHg 89%
22:00 +6°C° 0 mm 1 m/S 727 mmHg 89%
23:00 +6°C° 0 mm 1 m/S 727 mmHg 88%

übermorgen, 12 April, Montag

Zeit Temperatur Niederschläge Wind Luftdruck Luftfeuchtigkeit
00:00 +6°C° 0 mm 1 m/S 727 mmHg 87%
01:00 +5°C° 0 mm 1 m/S 728 mmHg 86%
02:00 +5°C° 0 mm 1 m/S 728 mmHg 85%
03:00 +4°C° 0 mm 0 m/S 728 mmHg 84%
04:00 +4°C° 0 mm 0 m/S 728 mmHg 83%
05:00 +5°C° 0 mm 0 m/S 728 mmHg 80%
06:00 +6°C° 0 mm 0 m/S 728 mmHg 76%
07:00 +6°C° 0 mm 0 m/S 728 mmHg 73%
08:00 +9°C° 0 mm 0 m/S 728 mmHg 66%
09:00 +11°C° 0 mm 0 m/S 728 mmHg 59%
10:00 +13°C° 0 mm 0 m/S 728 mmHg 51%
11:00 +14°C° 0 mm 0 m/S 728 mmHg 49%
12:00 +15°C° 0 mm 0 m/S 728 mmHg 46%
13:00 +16°C° 0 mm 0 m/S 728 mmHg 43%
14:00 +18°C° 0 mm 1 m/S 728 mmHg 44%
15:00 +18°C° 0 mm 1 m/S 728 mmHg 45%
16:00 +18°C° 0 mm 1 m/S 728 mmHg 46%
17:00 +15°C° 0 mm 1 m/S 728 mmHg 57%
18:00 +13°C° 0 mm 1 m/S 728 mmHg 68%
19:00 +11°C° 0 mm 1 m/S 728 mmHg 79%
20:00 +11°C° 0 mm 1 m/S 728 mmHg 83%
21:00 +10°C° 0 mm 1 m/S 728 mmHg 87%
22:00 +9°C° 0 mm 1 m/S 728 mmHg 91%
23:00 +9°C° 0 mm 1 m/S 728 mmHg 92%

13 April, Dienstag

Zeit Temperatur Niederschläge Wind Luftdruck Luftfeuchtigkeit
00:00 +8°C° 0 mm 1 m/S 728 mmHg 93%
01:00 +8°C° 0 mm 1 m/S 728 mmHg 93%
02:00 +7°C° 0 mm 1 m/S 729 mmHg 93%
03:00 +7°C° 0 mm 1 m/S 729 mmHg 93%
04:00 +6°C° 0 mm 1 m/S 729 mmHg 93%
05:00 +7°C° 0 mm 1 m/S 729 mmHg 90%
06:00 +7°C° 0 mm 1 m/S 729 mmHg 87%
07:00 +7°C° 0 mm 0 m/S 729 mmHg 84%
08:00 +10°C° 0 mm 1 m/S 729 mmHg 76%
09:00 +11°C° 0 mm 1 m/S 729 mmHg 68%
10:00 +13°C° 0 mm 1 m/S 729 mmHg 60%
11:00 +14°C° 0 mm 1 m/S 728 mmHg 56%
12:00 +15°C° 0 mm 1 m/S 728 mmHg 52%
13:00 +16°C° 0 mm 1 m/S 728 mmHg 47%
14:00 +16°C° 0 mm 1 m/S 728 mmHg 47%
15:00 +18°C° 0 mm 1 m/S 728 mmHg 46%
16:00 +18°C° 0 mm 1 m/S 727 mmHg 45%
17:00 +15°C° 0 mm 1 m/S 727 mmHg 52%
18:00 +14°C° 0 mm 1 m/S 727 mmHg 58%
19:00 +12°C° 0 mm 1 m/S 727 mmHg 65%
20:00 +11°C° 0 mm 1 m/S 727 mmHg 68%
21:00 +10°C° 0 mm 1 m/S 727 mmHg 70%
22:00 +9°C° 0 mm 1 m/S 727 mmHg 73%
23:00 +8°C° 0 mm 0 m/S 726 mmHg 74%

14 April, Mittwoch

Zeit Temperatur Niederschläge Wind Luftdruck Luftfeuchtigkeit
00:00 +7°C° 0 mm 0 m/S 726 mmHg 75%
01:00 +7°C° 0 mm 0 m/S 726 mmHg 75%
02:00 +7°C° 0 mm 0 m/S 726 mmHg 76%
03:00 +6°C° 0 mm 0 m/S 726 mmHg 76%
04:00 +6°C° 0 mm 0 m/S 726 mmHg 77%
05:00 +7°C° 0 mm 0 m/S 726 mmHg 74%
06:00 +7°C° 0 mm 0 m/S 726 mmHg 71%
07:00 +8°C° 0 mm 0 m/S 725 mmHg 69%
08:00 +10°C° 0 mm 0 m/S 725 mmHg 62%
09:00 +12°C° 0 mm 0 m/S 725 mmHg 55%
10:00 +14°C° 0 mm 0 m/S 725 mmHg 48%
11:00 +15°C° 0 mm 0 m/S 724 mmHg 45%
12:00 +17°C° 0 mm 0 m/S 724 mmHg 41%
13:00 +20°C° 0 mm 1 m/S 724 mmHg 37%
14:00 +20°C° 0 mm 1 m/S 723 mmHg 36%
15:00 +20°C° 0 mm 1 m/S 723 mmHg 35%
16:00 +20°C° 0 mm 1 m/S 723 mmHg 34%
17:00 +18°C° 0 mm 1 m/S 722 mmHg 40%
18:00 +15°C° 0 mm 1 m/S 722 mmHg 47%
19:00 +14°C° 0 mm 1 m/S 721 mmHg 53%
20:00 +13°C° 0 mm 1 m/S 721 mmHg 56%
21:00 +12°C° 0 mm 1 m/S 721 mmHg 59%
22:00 +10°C° 0 mm 0 m/S 721 mmHg 62%
23:00 +9°C° 0 mm 0 m/S 721 mmHg 64%

15 April, Donnerstag

Zeit Temperatur Niederschläge Wind Luftdruck Luftfeuchtigkeit
00:00 +8°C° 0 mm 0 m/S 721 mmHg 65%
01:00 +8°C° 0 mm 0 m/S 721 mmHg 67%
02:00 +7°C° 0 mm 0 m/S 721 mmHg 68%
03:00 +7°C° 0 mm 0 m/S 721 mmHg 69%
04:00 +7°C° 0 mm 0 m/S 721 mmHg 71%
05:00 +7°C° 0 mm 0 m/S 721 mmHg 69%
06:00 +8°C° 0 mm 0 m/S 720 mmHg 67%
07:00 +9°C° 0 mm 0 m/S 720 mmHg 65%
08:00 +11°C° 0 mm 0 m/S 720 mmHg 58%
09:00 +13°C° 0 mm 0 m/S 720 mmHg 52%
10:00 +16°C° 0 mm 1 m/S 720 mmHg 45%
11:00 +18°C° 0 mm 1 m/S 720 mmHg 41%
12:00 +19°C° 0 mm 1 m/S 719 mmHg 36%
13:00 +20°C° 0 mm 1 m/S 719 mmHg 32%
14:00 +20°C° 0 mm 1 m/S 719 mmHg 30%
15:00 +20°C° 0 mm 1 m/S 718 mmHg 29%
16:00 +20°C° 0 mm 1 m/S 718 mmHg 28%
17:00 +18°C° 0 mm 1 m/S 717 mmHg 34%
18:00 +16°C° 0 mm 1 m/S 717 mmHg 40%
19:00 +14°C° 0 mm 1 m/S 716 mmHg 45%
20:00 +13°C° 0 mm 1 m/S 716 mmHg 49%
21:00 +12°C° 0 mm 1 m/S 716 mmHg 54%
22:00 +11°C° 0 mm 1 m/S 716 mmHg 58%
23:00 +10°C° 0 mm 1 m/S 716 mmHg 60%
Mehr zeigen

Wir brauchen deine Erlaubnis

Meteoprog und unser Service Anbieter werden persönliche Daten aufbewahren, so wie Cookies, Geräte Bezeichnung oder ähnliche Technologien von deinem Gerät und Prozess, so wie Persönliche Daten Inhalte und Werbungen, genauso wie social Media und den Verkehr zu analysieren.

  • Aufbewahrung und/oder Zugang zu deiner Geräte Informationen.

    Cookies, Geräte Bezeichnung oder andere Informationen, können aufbewahrt oder Zugang zu deinem Gerät erhalten, für den Grund, der oben angegeben wird.

  • Personalisierte Werbung und Inhalte, Messungen, Einblick in das Publikum und Produkt Entwicklung.

    Werbungen und Inhalte können personalisiert werden, basierend auf ein Profil. Mehr Daten können besser personalisierte Werbungen und Inhalte hinzufügen. Werbung und Inhalte können gezeigt und gemessen werden. Einblicke über das Publikum, welche die Werbung gesehen haben und den Inhalt, können abgeleitet werden. So wie Daten können genutzt werden, um es zu verbessern oder die Benutzer Erfahrung zu verbessern das System und die Software.

Wenn du “Ich stimme zu” klickst, erlaubst du uns, die Cookies zu benutzen die Geräte Bezeichnung, den Web oder ähnliche Technologien zu benutzen. Deine Settings, können in deinem Gerät bei deinem Browser geändert werden.

Für den bestimmten Zweck, berechtigten Interessen beruhen darauf, mehr als auf den Inhalt. Du kannst mehr darüber in unseren Privaten und Cookie Politik lesen.